Tracking 31027 objects as of 19-Jul-2025
HD Live streaming from Space Station
objects crossing your sky now

COSMOS 2251 DEB

Track COSMOS 2251 DEB now!
10-day predictions


NORAD ID: 35987
Int'l Code: 1993-036AWD
Perigee: 723.6 km
Apogee: 794.9 km
Inclination: 74.0 °
Period: 99.9 minutes
Semi major axis: 7130 km
RCS: 0.0082 m2 (small)
Launch date: June 16, 1993
Source: Commonwealth of Independent States (former USSR) (CIS)
Launch site: PLESETSK MISSILE AND SPACE COMPLEX (PKMTR)

Note: This is SATELLITE DEBRIS
Your satellite tracking list
COSMOS 628
Track 1 satellite(s)




NASA's NSSDC Master Catalog

Two Line Element Set (TLE):
1 35987U 93036AWD 25199.37786919  .00001350  00000-0  41408-3 0  9998
2 35987  73.9972 240.6488 0050010  38.3423 322.1270 14.41937396589402
Source of the keplerian elements: AFSPC